Location: ?????
(33.4636°N, 35.4426°E)
Time: 03:32:37
(UTC+00:00)

Daily predictions for brighter satellites

Satellite Brightness Start Highest point End
(mag) Time Altitude Azimuth Time Altitude Azimuth Time Altitude Azimuth
CENTAUR R/B 4.0 00:25:56 28° N 00:25:56 28° N 00:29:25 10° NNE
Cosmos 1943 Rocket 4.5 00:31:07 14° N 00:31:07 14° N 00:32:00 10° N
Atlas Centaur 2 3.6 00:40:29 36° SE 00:40:29 36° SE 00:44:59 10° ESE
Cosmos 2026 Rocket 4.2 00:46:40 67° E 00:46:40 67° E 00:52:52 10° NNE
IDEFIX/ARIANE 42P 4.0 00:43:17 10° NNE 00:48:04 34° E 00:49:11 31° ESE
Hubble Space Telescope 3.4 01:05:31 13° SE 01:05:31 13° SE 01:06:03 10° SE
Cosmos 1538 Rocket 4.4 01:03:09 60° E 01:03:09 60° E 01:07:53 10° NNE
ADEOS II 4.2 01:01:29 10° N 01:02:32 15° NNW 01:02:32 15° NNW
Cosmos 1315 Rocket 4.4 01:08:48 34° NE 01:08:48 34° NE 01:11:19 10° NNE
SeaSat 1 3.2 01:03:09 10° NE 01:07:54 46° ESE 01:08:39 42° SE
Cosmos 1428 Rocket 4.3 01:18:49 63° SW 01:19:47 76° W 01:26:04 10° N
ASTRO E2 3.9 01:21:49 37° ESE 01:21:49 37° ESE 01:24:22 10° E
PSLV R/B 3.8 01:18:57 10° NNE 01:22:45 66° NNE 01:22:45 66° NNE
Lacrosse 5 rocket 4.0 01:29:32 12° SSE 01:29:32 12° SSE 01:29:49 10° SSE
Sakura Rocket 3.9 01:26:47 38° SSE 01:26:47 38° SSE 01:30:26 10° ESE
Meteor 1-5 Rocket 4.2 01:20:58 10° N 01:26:32 84° E 01:32:16 10° S
USA 215 3.7 01:22:55 10° NE 01:29:19 56° SE 01:33:04 26° SSW
OAO 2 Rocket 3.0 01:32:45 77° W 01:33:05 87° N 01:38:01 10° E
Meteor 2-9 4.4 01:28:43 10° NNW 01:34:04 69° W 01:36:57 27° S
ATLAS 3B R/B 4.3 01:35:37 16° NW 01:35:47 16° NW 01:39:40 10° N
Cosmos 44 Rocket 3.6 01:38:56 49° NW 01:38:56 49° NW 01:43:42 10° NNE
OAO 3 Rocket 3.2 01:41:31 55° SSW 01:42:10 61° SSE 01:46:45 10° E
ADEOS 3.6 01:40:42 10° N 01:45:47 54° WNW 01:46:49 46° WSW
Cosmos 1346 Rocket 2.7 01:46:12 10° N 01:50:18 83° W 01:54:22 10° S
Cosmos 2266 Rocket 4.1 01:48:11 10° S 01:54:15 73° E 02:00:17 10° N
Cosmos 1500 4.3 01:52:05 10° NNW 01:54:05 28° NNW 01:54:05 28° NNW
Cosmos 1536 2.6 01:51:46 10° N 01:55:44 77° W 01:59:41 10° S
Yuri Rocket 4.1 01:59:42 32° WSW 02:01:51 50° S 02:08:33 10° ESE
Cosmos 1782 Rocket 4.2 01:59:05 10° N 02:03:24 56° E 02:07:43 10° SSE
TSX-5 3.2 02:04:24 51° SW 02:05:01 67° WNW 02:08:10 10° NNE
Cosmos 2112 Rocket 4.4 02:01:19 10° S 02:06:32 66° ESE 02:11:44 10° NNE
Shenzhou-11 Module 2.7 02:07:01 35° NNW 02:07:01 35° NNW 02:09:31 10° NE
H-2A R/B 2.8 02:05:05 10° N 02:08:35 35° WNW 02:08:54 34° W
Cosmos 1703 Rocket 3.7 02:07:19 21° SSW 02:10:06 50° W 02:14:23 10° N
Cosmos 2084 Rocket 3.5 02:08:01 10° NW 02:12:18 57° WSW 02:16:31 10° SSE
Lacrosse 5 2.5 02:09:42 10° NNW 02:14:41 57° NE 02:19:39 10° SE
MSX 3.9 02:09:35 10° N 02:15:09 53° WNW 02:20:40 10° SSW
CZ-2C R/B 2.4 02:11:29 10° N 02:16:28 76° WNW 02:21:34 10° SSW
Intelsat 5-1 Rocket 4.5 02:07:38 20° WSW 02:19:18 49° SSW 02:25:27 10° ESE
Abrixas rocket 1.9 02:23:18 27° SW 02:24:47 84° NW 02:27:49 10° NE
Okean 1-7 3.5 02:22:25 10° SSW 02:26:31 39° W 02:30:39 10° N
Cosmos 1553 Rocket 4.4 02:21:05 10° NNW 02:26:44 38° W 02:32:19 10° SSW
Cosmos 2221 Rocket 3.6 02:22:25 10° S 02:26:49 84° E 02:31:14 10° N
Atlas Centaur 2 3.6 02:23:08 18° WSW 02:27:06 33° SSW 02:33:56 10° SE
IDEFIX/ARIANE 42P 3.7 02:23:15 10° NNW 02:27:24 24° WNW 02:29:59 17° WSW
Sich 1 Rocket 3.6 02:23:45 10° N 02:28:14 90° E 02:32:45 10° S
CZ-4B R/B 3.1 02:23:52 10° N 02:28:19 60° WNW 02:32:39 10° SSW
Cosmos 1743 3.4 02:25:06 10° N 02:28:56 58° E 02:32:46 10° SSE
Cosmos 1656 3.7 02:26:14 10° SSW 02:31:56 89° WNW 02:37:39 10° NNE
Cosmos 1680 Rocket 3.6 02:28:33 10° SSW 02:33:41 55° WNW 02:38:50 10° N
SL-4 R/B 2.3 02:31:33 17° WNW 02:33:49 36° SW 02:37:16 10° SSE
Cosmos 2315 Rocket 4.1 02:34:23 10° N 02:40:38 88° E 02:46:53 10° S
Meteor PRIRODA 3.7 02:38:08 10° N 02:41:47 57° WNW 02:45:25 10° SSW
Hubble Space Telescope 2.7 02:40:53 11° SW 02:43:02 15° SSW 02:45:28 10° SSE
SeaSat 1 3.8 02:41:31 10° N 02:45:03 20° NW 02:48:27 11° W
Cosmos 158 Rocket 4.1 02:39:57 10° SSW 02:45:06 85° ESE 02:50:26 10° NNE
COSMO-SKYMED 1 3.3 02:44:32 10° SSE 02:48:47 60° ENE 02:53:04 10° N
Cosmos 1666 3.6 02:46:57 10° NNW 02:50:10 26° W 02:53:22 10° SSW
ALOS 3.5 02:45:41 10° NNE 02:50:12 48° E 02:54:41 10° S
Cosmos 1340 4.5 02:48:58 10° WNW 02:50:38 13° W 02:52:19 10° WSW
Meteor 1-19 Rocket 4.2 02:51:47 10° SSW 02:57:23 71° W 03:03:11 10° N
ASTRO E2 3.2 02:56:55 10° W 03:00:44 45° SSW 03:04:34 10° ESE
ATLAS CENTAUR R/B 3.6 02:57:32 10° N 03:01:14 27° NE 03:04:41 10° ESE
Okean 2 Rocket 3.1 02:59:55 10° NNW 03:04:23 63° W 03:08:48 10° S
CZ-4B R/B 3.4 02:59:02 10° NNE 03:04:31 78° ESE 03:09:52 10° S
